Date String (YYYY-MM-DD hh:mm:ss) UTC,Instrument flags,Ambient pressure (hPa),Sample flow (lpm),Bypass flow (lpm),Sample temperature (°C),Ambient temperature (°C),ASC tube jacket temperature (°C),LED temperature (°C),Box temperature (°C),Sample RH (%),Span deviation,Mass concentration (μg/m³),Mass concentration (μg/m³),Mass concentration (μg/m³)
DateTimeUTC,F1_M11,P_M11,Q1_M11,Q2_M11,T1_M11,T2_M11,T3_M11,T4_M11,T5_M11,U1_M11,ZSPAN_M11,X0_M11,X2_M11,X1_M11
2023-03-06 07:00:00,,0821.6,4.94,0.00,21.2,22.2,00.0,29.8,23.0,12.4,0000.0,0005.01,0002.52,0001.77
2023-03-06 07:01:00,,0821.6,4.99,0.00,21.2,21.5,00.0,29.8,22.9,12.4,0000.0,0005.16,0002.54,0001.77
2023-03-06 07:02:00,,0821.6,5.00,0.00,21.2,20.7,00.0,29.9,22.7,12.4,0000.0,0005.32,0002.60,0001.76
2023-03-06 07:03:00,,0821.7,4.99,0.00,21.1,20.1,00.0,29.9,22.5,12.5,0000.0,0005.03,0002.55,0001.74
2023-03-06 07:04:00,,0821.7,5.00,0.00,21.0,19.5,00.0,29.9,22.3,12.5,0000.0,0004.96,0002.53,0001.74
2023-03-06 07:05:00,,0821.7,5.00,0.00,20.9,19.2,00.0,29.8,22.2,12.6,0000.0,0004.80,0002.49,0001.75
2023-03-06 07:06:00,,0821.7,5.00,0.00,20.9,18.8,00.0,29.8,22.1,12.7,0000.0,0004.70,0002.50,0001.77
2023-03-06 07:07:00,,0821.7,5.01,0.00,20.8,18.9,00.0,29.8,22.1,12.8,0000.0,0005.20,0002.60,0001.79
2023-03-06 07:08:00,,0821.7,4.98,0.00,20.9,20.3,00.0,29.7,22.4,12.7,0000.0,0005.02,0002.59,0001.81
2023-03-06 07:09:00,,0821.7,4.99,0.00,21.0,21.5,00.0,29.7,22.8,12.6,0000.0,0005.27,0002.65,0001.84
2023-03-06 07:10:00,,0821.7,4.99,0.00,21.2,22.2,00.0,29.8,23.0,12.5,0000.0,0005.37,0002.71,0001.87
2023-03-06 07:11:00,,0821.7,5.00,0.00,21.2,21.5,00.0,29.8,22.9,12.5,0000.0,0005.55,0002.80,0001.89
2023-03-06 07:12:00,,0821.6,4.97,0.00,21.1,20.6,00.0,29.8,22.6,12.6,0000.0,0006.24,0002.90,0001.91
2023-03-06 07:13:00,,0821.7,5.00,0.00,21.1,20.0,00.0,29.8,22.4,12.6,0000.0,0007.58,0002.89,0001.94
2023-03-06 07:14:00,,0821.7,4.99,0.00,21.0,19.4,00.0,29.8,22.3,12.7,0000.0,0007.57,0002.90,0001.98
2023-03-06 07:15:00,,0821.7,4.99,0.00,20.9,19.0,00.0,29.8,22.1,12.7,0000.0,0007.57,0002.92,0002.02
2023-03-06 07:16:00,,0821.7,5.01,0.00,20.9,19.7,00.0,29.7,22.3,12.7,0000.0,0007.65,0002.98,0002.06
2023-03-06 07:17:00,,0821.7,4.97,0.00,21.0,21.0,00.0,29.7,22.7,12.6,0000.0,0007.72,0003.03,0002.08
2023-03-06 07:18:00,,0821.7,5.04,0.00,21.2,22.0,00.0,29.7,23.1,12.5,0000.0,0007.42,0002.99,0002.09
2023-03-06 07:19:00,,0821.7,4.98,0.00,21.3,22.1,00.0,29.8,23.1,12.4,0000.0,0007.34,0002.98,0002.10
2023-03-06 07:20:00,,0821.7,5.00,0.00,21.3,21.2,00.0,29.9,22.9,12.3,0000.0,0007.31,0002.95,0002.10
2023-03-06 07:21:00,,0821.7,5.00,0.00,21.2,20.4,00.0,29.9,22.6,12.3,0000.0,0007.54,0002.94,0002.11
2023-03-06 07:22:00,,0821.7,5.00,0.00,21.1,19.7,00.0,29.9,22.3,12.3,0000.0,0007.80,0002.91,0002.11
2023-03-06 07:23:00,,0821.7,5.00,0.00,21.0,19.1,00.0,29.9,22.2,12.4,0000.0,0007.66,0002.83,0002.09
2023-03-06 07:24:00,,0821.7,5.00,0.00,20.9,18.7,00.0,29.8,22.0,12.5,0000.0,0006.42,0002.84,0002.09
2023-03-06 07:25:00,,0821.7,5.01,0.00,20.8,19.4,00.0,29.8,22.1,12.5,0000.0,0006.29,0002.88,0002.09
2023-03-06 07:26:00,,0821.8,5.01,0.00,20.9,20.7,00.0,29.7,22.6,12.4,0000.0,0006.38,0002.89,0002.07
2023-03-06 07:27:00,,0821.8,5.01,0.00,21.1,21.8,00.0,29.8,22.9,12.4,0000.0,0006.51,0002.93,0002.06
2023-03-06 07:28:00,,0821.8,5.02,0.00,21.3,22.5,00.0,29.8,23.2,12.2,0000.0,0006.92,0002.90,0002.04
2023-03-06 07:29:00,,0821.8,5.00,0.00,21.3,21.9,00.0,29.9,23.0,12.2,0000.0,0007.36,0002.90,0002.03
2023-03-06 07:30:00,,0821.8,5.04,0.00,21.3,20.9,00.0,29.9,22.8,12.3,0000.0,0007.79,0002.94,0002.02
2023-03-06 07:31:00,,0821.8,5.00,0.00,21.2,20.2,00.0,29.9,22.6,12.3,0000.0,0008.03,0002.98,0002.02
2023-03-06 07:32:00,,0821.8,5.01,0.00,21.1,19.5,00.0,29.9,22.3,12.4,0000.0,0007.82,0003.02,0002.01
2023-03-06 07:33:00,,0821.8,5.00,0.00,21.0,19.1,00.0,29.9,22.2,12.5,0000.0,0007.58,0003.02,0002.01
2023-03-06 07:34:00,,0821.8,5.00,0.00,20.9,18.8,00.0,29.8,22.1,12.6,0000.0,0007.46,0003.04,0002.01
2023-03-06 07:35:00,,0821.8,5.01,0.00,20.9,19.3,00.0,29.8,22.2,12.6,0000.0,0007.51,0003.07,0002.01
2023-03-06 07:36:00,,0821.8,4.97,0.00,21.0,20.8,00.0,29.8,22.6,12.5,0000.0,0007.38,0003.06,0002.02
2023-03-06 07:37:00,,0821.8,5.03,0.00,21.1,21.9,00.0,29.8,23.0,12.4,0000.0,0007.45,0003.11,0002.01
2023-03-06 07:38:00,,0821.9,5.00,0.00,21.3,22.3,00.0,29.8,23.1,12.3,0000.0,0007.46,0003.09,0001.98
2023-03-06 07:39:00,,0821.9,5.00,0.00,21.3,21.5,00.0,29.9,22.9,12.3,0000.0,0007.38,0003.14,0001.98
2023-03-06 07:40:00,,0821.8,5.02,0.00,21.2,20.7,00.0,29.9,22.7,12.3,0000.0,0007.03,0003.14,0001.99
2023-03-06 07:41:00,,0821.9,5.00,0.00,21.2,20.0,00.0,29.9,22.6,12.4,0000.0,0006.53,0003.11,0001.98
2023-03-06 07:42:00,,0821.8,5.01,0.00,21.1,19.5,00.0,29.9,22.4,12.4,0000.0,0005.82,0003.05,0001.95
2023-03-06 07:43:00,,0821.8,5.01,0.00,21.0,19.1,00.0,29.9,22.3,12.4,0000.0,0005.69,0002.99,0001.93
2023-03-06 07:44:00,,0822.0,5.00,0.00,20.9,18.8,00.0,29.8,22.1,12.4,0000.0,0005.57,0002.94,0001.91
2023-03-06 07:45:00,,0822.0,5.01,0.00,20.8,19.2,00.0,29.8,22.2,12.4,0000.0,0005.38,0002.89,0001.90
2023-03-06 07:46:00,,0822.0,4.98,0.00,21.0,20.7,00.0,29.8,22.6,12.4,0000.0,0005.50,0002.83,0001.88
2023-03-06 07:47:00,,0822.0,5.03,0.00,21.1,21.9,00.0,29.8,22.9,12.3,0000.0,0006.15,0002.82,0001.84
2023-03-06 07:48:00,,0822.1,4.99,0.00,21.2,22.4,00.0,29.8,23.1,12.1,0000.0,0006.08,0002.78,0001.84
2023-03-06 07:49:00,,0822.1,4.98,0.00,21.3,21.5,00.0,29.9,23.0,12.1,0000.0,0006.10,0002.79,0001.85
2023-03-06 07:50:00,,0822.1,5.02,0.00,21.2,20.7,00.0,29.9,22.8,12.1,0000.0,0005.90,0002.75,0001.85
2023-03-06 07:51:00,,0822.1,5.01,0.00,21.1,20.1,00.0,29.9,22.5,12.1,0000.0,0005.67,0002.72,0001.84
2023-03-06 07:52:00,,0822.1,5.00,0.00,21.0,19.5,00.0,29.9,22.3,12.1,0000.0,0005.71,0002.73,0001.85
2023-03-06 07:53:00,,0822.1,5.00,0.00,21.0,19.1,00.0,29.9,22.2,12.2,0000.0,0005.96,0002.77,0001.86
2023-03-06 07:54:00,,0822.1,5.01,0.00,20.9,18.8,00.0,29.8,22.1,12.2,0000.0,0006.27,0002.79,0001.86
2023-03-06 07:55:00,,0822.1,5.00,0.00,20.9,19.8,00.0,29.8,22.3,12.3,0000.0,0006.48,0002.83,0001.88
2023-03-06 07:56:00,,0822.1,4.99,0.00,21.0,21.1,00.0,29.8,22.7,12.2,0000.0,0006.67,0002.87,0001.88
2023-03-06 07:57:00,,0822.1,4.99,0.00,21.2,22.1,00.0,29.8,23.1,12.1,0000.0,0007.13,0002.89,0001.88
2023-03-06 07:58:00,,0822.1,4.99,0.00,21.3,22.0,00.0,29.9,23.1,12.0,0000.0,0006.27,0002.86,0001.91
2023-03-06 07:59:00,,0822.1,4.99,0.00,21.3,21.1,00.0,29.9,22.9,12.0,0000.0,0006.25,0002.88,0001.92
